Tracking 29059 objects as of 19-Jun-2024
HD Live streaming from Space Station
objects crossing your sky now

ONEWEB-0300

Track ONEWEB-0300 now!
10-day predictions
ONEWEB-0300 is classified as:


NORAD ID: 49089
Int'l Code: 2021-075Q
Perigee: 1,219.0 km
Apogee: 1,222.7 km
Inclination: 87.9 °
Period: 109.7 minutes
Semi major axis: 7591 km
RCS: Unknown
Launch date: August 21, 2021
Source: United Kingdom (UK)
Launch site: TYURATAM MISSILE AND SPACE COMPLEX (TTMTR)
Your satellite tracking list
Your tracking list is empty




NASA's NSSDC Master Catalog

Two Line Element Set (TLE):
1 49089U 21075Q   24170.88654851  .00000387  00000-0  10412-2 0  9992
2 49089  87.8935 135.6839 0002395  90.4826 269.6577 13.12444661139675
Source of the keplerian elements: AFSPC